Погода Вайда-Губа

Поиск расширенной информации на нашем сайте:

Полезная информация:

Новости сайта



02.01.2020
Опубликован Долгосрочный прогноз погоды по городам России и ближнего зарубежья на январь 2020 года.
Карты: Прогноз на январь и февраль 2020 года, Сравнение прогнозируемой аномалии приземной температуры воздуха на январь 2020 года по разным моделям.




Погода Вайда-Губа - сегодня

Время (UTC), дата Ветер
(°,м/с) 
Видим.   Явления Облачность Т
(°С)
Тd
(°С)
f(%) Тe
(°С)
Pmin
(гПа)
dP
(гПа)
Po
(мм)
O2
(г/м3)
Тmin Tmax R s Состояние
почвы
03 29.11.20 190 (Ю) 11-15{18}  50000 м    10/5 300 м средняя 
[Sc|Ac trans]
-0.5 -3.4 81 -6  1020  -0.7  764  309  -1.6         
06 29.11.20 210 (ЮЗ) 12-15{17}  50000 м    10/9 300 м средняя 
[Sc|Ac As]
+0.1 -2.5 83 -5  1019  -1  764  308  -1.1      мокрый или
старый снег
50-90% 
09 29.11.20 200 (Ю) 11-14{16}  50000 м    8/4 300 м верхняя 
[Sc|Ci fib]
+0.4 -2.4 81 -5  1019.8  0.8  764  308           
12 29.11.20 210 (ЮЗ) 14-17{17}  50000 м    8/4 300 м средняя, верхняя 
[Sc|Ac trans|Ci fib]
+0 -2.5 83 -6  1018.9  -0.9  763  308           
15 29.11.20 210 (ЮЗ) 12-16{18}  50000 м    10/3 300 м верхняя 
[Sc|Cs]
+0.1 -2.4 83 -5  1018.1  -0.8  763  308           
18 29.11.20 210 (ЮЗ) 13-16{19}  50000 м    9/1 300 м верхняя 
[Sc|Cs]
-0.3 -3.2 81 -6  1016.9  -1.2  762  308    +0.8       
21 29.11.20 200 (Ю) 15-19{19}  50000 м    10/3 300 м верхняя 
[Sc|Cs]
-0.2 -2.9 82 -6  1016.1  -0.8  761  307           
00 30.11.20 210 (ЮЗ) 11-15{20}  50000 м    10/3 300 м средняя, верхняя 
[Sc|Ac As|Cs]
+0.4 -2.4 81 -5  1015.9  -0.2  761  307           
03 30.11.20 210 (ЮЗ) 13-17{19}  50000 м    10/6 300 м средняя 
[Sc|Ac As]
+0.8 -2.1 81 -5  1014  -1.9  760  305  -0.5         
06 30.11.20 210 (ЮЗ) 12-17{19}  50000 м    9/5 300 м средняя 
[Sc|Ac trans]
+0.9 -2.2 80 -4  1012.5  -1.5  759  305  -0.5      мокрый или
старый снег
50-90% 
09 30.11.20 200 (Ю) 15-18{18}  50000 м    8/8 300 м 
[Sc]
+1 -1.9 81 -5  1011.3  -1.2  758  304           
12 30.11.20 200 (Ю) 14-20{20}  50000 м    9/9 600 м 
[Sc]
+1.1 -2.6 76 -4  1010.2  -1.1  757  304           
15 30.11.20 190 (Ю) 12-18{21}  50000 м    9/9 600 м 
[Sc]
+0.3 -3.6 75 -5  1008.4  -1.8  756  305           
18 30.11.20 210 (ЮЗ) 15-20{22}  50000 м    10/9 600 м средняя 
[Sc|Ac trans]
+0.6 -3.3 75 -5  1006.7  -1.7  754  304    +1.4       
21 30.11.20 200 (Ю) 15-20{20}  50000 м    10/5 600 м средняя 
[Sc|Ac trans]
+0.1 -3.8 75 -6  1005.3  -1.4  753  304           
00 01.12.20 200 (Ю) 13-17{20}  50000 м    10/4 300 м кучево-дожд., средняя 
[Cb cap|As op]
+0.3 -3.6 75 -5  1004.8  -0.5  753  303           
03 01.12.20 200 (Ю) 11-15{18}  4000 м  слаб. ливневой снег  10/10 300 м кучево-дожд. 
[Cb cap]
-0.2 -2.3 86 -5  1004.1  -0.7  752  304  -0.4    0.3     
06 01.12.20 200 (Ю) 12-16{17}  4000 м  слаб. ливневой снег  10/10 300 м кучево-дожд. 
[Cb cap]
-0.4 -1.5 92 -6  1003.1  -1  752  303  -0.6    0.6  равномерный
сухой снег
100% 
09 01.12.20 220 (ЮЗ) 10-13{15}  4000 м  слаб. ливневой снег  10/10 200 м кучево-дожд. 
[Cb cap]
+0.1 -0.6 95 -5  1003.8  0.7  752  303           
12 01.12.20 240 (ЮЗ) 8-11{13}  1000 м  ливневой снег  10/10 200 м кучево-дожд. 
[Cb cap]
+0.1 -0.5 96 -4  1004.7  0.9  753  303           
15 01.12.20 330 (СЗ) 9-12{13}  50000 м  {ливн. осадки}  10/8 600 м средняя 
[Sc|Ac trans]
+2.7 -3.4 64 -1  1007.3  2.6  755  302         
18 01.12.20 310 (СЗ) 8-11{13}  20000 м  {ливн. осадки}  8/5 600 м средняя 
[Sc|Ac trans]
+1.4 -4.8 63 -3  1010.7  3.4  757  304    +3.1     
21 01.12.20 290 (З) 5-7{11}  50000 м    1/1 600 м 
[Sc]
+0.3 -6.9 58 -3  1013.6  2.9  759  306           
00 02.12.20 270 (З) 8-12{13}  50000 м    3/3 600 м 
[Sc]
+0.4 -5.1 67 -4  1015.7  2.1  761  307           
03 02.12.20 260 (З) 7-10{12}  50000 м    3/3 600 м 
[Sc]
+0.2 -5.5 65 -4  1015.9  0.2  761  307  -0.1         
Время (UTC), дата Ветер
(°,м/с) 
Видим.   Явления Облачность Т
(°С)
Тd
(°С)
f(%) Тe
(°С)
Pmin
(гПа)
dP
(гПа)
Po
(мм)
O2
(г/м3)
Тmin Tmax R s Состояние
почвы

Для получения пояснительной информации подведите курсор к названию столбца.

ПОГОДА Вайда-Губа - архив

Всё, что Вы хотите узнать о погоде Вайда-Губа - удобно и подробно!

Выберите нужную дату (начиная с 1 января 2019* года) и нажмите кнопку "Найти".
Будут отображены архивные сводки погоды по пункту Вайда-Губа, начиная с указанной даты.


Отображать данные в формате CSV (для использования в таблицах Excel)


Внимание! Наш архив погоды предназначен исключительно для личного некоммерческого использования в познавательных целях. Если Вам необходимы официальные справки о состоянии погоды (для производственных, юридических, коммерческих и т.п. целей), обращайтесь в органы Росгидромета.

*Примечание: данная дата относится к архиву по метеостанциям СССР (Россия, СНГ, Балтия).
Архив по метеостанциям Зарубежной Европы и Азии (кроме Китая) хранится 10 дней, по другим регионам земного шара (Китай, Африка, Америка, Австралия, Океания) - 1 день.

Вайда-Губа - район местоположения метеостанции


Название, широта, долгота, высота метеостанции:
Вайда-Губа 69.9°ш. 32°д. 8 м над ур. моря [Российская Федерация]

Дополнительная информация

В oтличие oт бoльшинства пoгoдных сайтoв мы публикуем пoдрoбную метеoинфoрмацию в детальнoм прoфессиoнальнoм фoрмате.

Характеристики температуры и влажнoсти вoздуха измеряются на высoте 2 м в тени вдали oт зданий и деревьев.
Скoрoсть ветра измеряется на высoте 10 м (на урoвне рoста челoвека скoрoсть ветра ниже в 1.5-2 раза). Если метеoстанция нахoдится в гoрoде или в лесу, тo скoрoсть ветра занижена на 2-4 м/с пo сравнению с oткрытым местoм. Скoрoсть ветра над акватoриями крупных рек и oзёр, а также на вершинах хoлмoв на 2-5 м/с выше, чем в oбычных услoвиях.
Атмoсфернoе давление в разных тoчках местнoсти мoжет значительнo oтличаться oт давления на метеoстанции, в зависимoсти oт услoвий рельефа (при пoдъёме на 10 м давление пoнижается примернo на 1 мм рт.ст.).